Slayton, MN

7:01 AM CDT on September 28, 2016 (GMT -0500)
Slayton

Weather History for KDVP - October, 2012

Change the Weather History Date:

Friday, October 12, 2012

  Actual Average (KOTG) Record (KOTG)
Temperature  
Mean Temperature 36 °F -  
Max Temperature 54 °F 58 °F 81 °F (1976)
Min Temperature 20 °F 38 °F 19 °F (2012)
Degree Days  
Heating Degree Days 28    
Moisture  
Dew Point 17 °F    
Average Humidity 49    
Maximum Humidity 78    
Minimum Humidity 19    
Precipitation  
Precipitation 0.00 in - - ()
Sea Level Pressure  
Sea Level Pressure 30.26 in    
Wind  
Wind Speed 9 mph (SSE)    
Max Wind Speed 26 mph    
Max Gust Speed 32 mph    
Visibility 10 miles    
Events      
Averages and records for this station are not official NWS values.
T = Trace of Precipitation, MM = Missing Value Source: NWS Daily Summary

Daily Weather History Graph

Daily Weather History Graph

Search for Another Location

Airport or City:

Trip Planner

Search our weather history database for the weather conditions in past years. The results will help you decide how hot, cold, wet, or windy it might be!

Date:

Astronomy

Oct. 12, 2012 Rise Set
Actual Time 7:34 AM CDT 6:43 PM CDT
Civil Twilight 7:05 AM CDT 7:12 PM CDT
Nautical Twilight 6:32 AM CDT 7:45 PM CDT
Astronomical Twilight 5:58 AM CDT 8:19 PM CDT
Moon 4:13 AM CDT (10/12) 4:58 PM CDT (10/12)
Length of Visible Light 12h 06m
Length of Day
11h 08m
Waning Crescent, 10% of the Moon is Illuminated
Oct 12
Waning Crescent
Oct 15
New
Oct 21
First Quarter
Oct 29
Full
Nov 6
Last Quarter

Hourly Weather History & Observations

Time (CDT) Temp. Windchill Dew Point Humidity Pressure Visibility Wind Dir Wind Speed Gust Speed Precip Events Conditions
12:34 AM 28.0 °F 24.2 °F 17.2 °F 64% 30.41 in 10.0 mi NNW 3.5 mph - N/A   Clear
12:54 AM 29.1 °F - 17.4 °F 62% 30.41 in 10.0 mi Calm Calm - N/A   Clear
1:14 AM 24.3 °F 19.9 °F 15.3 °F 69% 30.41 in 10.0 mi WNW 3.5 mph - N/A   Clear
1:34 AM 26.4 °F 19.8 °F 17.2 °F 68% 30.41 in 10.0 mi NW 5.8 mph - N/A   Clear
1:54 AM 24.6 °F 20.3 °F 16.3 °F 71% 30.41 in 10.0 mi NW 3.5 mph - N/A   Clear
2:14 AM 23.7 °F 17.8 °F 16.0 °F 72% 30.41 in 10.0 mi NW 4.6 mph - N/A   Clear
2:34 AM 23.4 °F 17.4 °F 15.8 °F 73% 30.41 in 10.0 mi NW 4.6 mph - N/A   Clear
2:53 AM 23.2 °F 18.7 °F 15.8 °F 73% 30.41 in 10.0 mi NW 3.5 mph - N/A   Clear
3:14 AM 22.1 °F 17.4 °F 15.1 °F 74% 30.41 in 10.0 mi NNW 3.5 mph - N/A   Clear
3:54 AM 21.7 °F - 15.4 °F 77% 30.41 in 10.0 mi Calm Calm - N/A   Clear
4:14 AM 20.8 °F - 14.9 °F 78% 30.40 in 10.0 mi Calm Calm - N/A   Clear
4:34 AM 22.5 °F - 14.4 °F 71% 30.41 in 10.0 mi Calm Calm - N/A   Clear
5:14 AM 22.1 °F - 15.4 °F 76% 30.40 in 10.0 mi Calm Calm - N/A   Clear
5:34 AM 21.0 °F - 14.5 °F 76% 30.40 in 10.0 mi Calm Calm - N/A   Clear
5:54 AM 21.7 °F - 14.5 °F 74% 30.40 in 10.0 mi Calm Calm - N/A   Clear
6:14 AM 22.8 °F - 14.7 °F 71% 30.40 in 10.0 mi Calm Calm - N/A   Clear
6:34 AM 22.3 °F - 14.7 °F 73% 30.39 in 10.0 mi Calm Calm - N/A   Clear
6:54 AM 23.9 °F 19.5 °F 15.6 °F 71% 30.40 in 10.0 mi East 3.5 mph - N/A   Clear
7:14 AM 26.1 °F 20.5 °F 18.1 °F 72% 30.39 in 10.0 mi East 4.6 mph - N/A   Clear
7:34 AM 25.0 °F 18.1 °F 17.6 °F 74% 30.39 in 10.0 mi ESE 5.8 mph - N/A   Clear
7:54 AM 25.7 °F 19.0 °F 18.3 °F 74% 30.38 in 10.0 mi SE 5.8 mph - N/A   Clear
8:14 AM 25.3 °F 19.7 °F 18.5 °F 75% 30.39 in 10.0 mi SE 4.6 mph - N/A   Clear
8:34 AM 26.6 °F 21.2 °F 19.6 °F 75% 30.38 in 10.0 mi SE 4.6 mph - N/A   Clear
8:54 AM 28.4 °F 21.2 °F 20.3 °F 72% 30.37 in 10.0 mi SE 6.9 mph - N/A   Clear
9:14 AM 31.3 °F 22.7 °F 21.2 °F 66% 30.37 in 10.0 mi SE 10.4 mph - N/A   Clear
9:34 AM 33.6 °F 24.1 °F 21.9 °F 62% 30.36 in 10.0 mi SE 13.8 mph - N/A   Clear
9:54 AM 36.0 °F 26.7 °F 20.8 °F 54% 30.36 in 10.0 mi SE 15.0 mph - N/A   Clear
10:14 AM 38.1 °F 29.1 °F 20.3 °F 49% 30.36 in 10.0 mi SSE 16.1 mph - N/A   Clear
10:34 AM 40.1 °F 31.0 °F 19.9 °F 44% 30.35 in 10.0 mi SE 18.4 mph - N/A   Clear
11:14 AM 43.2 °F 35.0 °F 18.7 °F 38% 30.34 in 10.0 mi SE 18.4 mph - N/A   Clear
11:34 AM 44.8 °F 36.4 °F 17.4 °F 33% 30.32 in 10.0 mi SE 21.9 mph - N/A   Clear
11:54 AM 46.2 °F 39.0 °F 16.2 °F 30% 30.32 in 10.0 mi SSE 18.4 mph 25.3 mph N/A   Clear
12:14 PM 46.6 °F - 16.2 °F 30% 30.32 in 10.0 mi SSE 21.9 mph 26.5 mph N/A   Clear
12:34 PM 47.7 °F - 16.3 °F 29% 30.32 in 10.0 mi SSE 19.6 mph 24.2 mph N/A   Clear
12:56 PM 48.4 °F - 15.3 °F 27% 30.30 in 10.0 mi SSE 16.1 mph - N/A   Clear
1:54 PM 50.9 °F - 12.4 °F 21% 30.25 in 10.0 mi South 18.4 mph 28.8 mph N/A   Clear
2:15 PM 51.6 °F - 11.8 °F 20% 30.23 in 10.0 mi SSE 26.5 mph 31.1 mph N/A   Clear
3:34 PM 53.8 °F - 12.2 °F 19% 30.19 in 10.0 mi SSE 24.2 mph 29.9 mph N/A   Clear
3:54 PM 53.6 °F - 12.2 °F 19% 30.18 in 10.0 mi SSE 21.9 mph 27.6 mph N/A   Clear
4:15 PM 53.8 °F - 11.5 °F 19% 30.16 in 10.0 mi SSE 20.7 mph 26.5 mph N/A   Clear
4:34 PM 53.2 °F - 11.1 °F 19% 30.14 in 10.0 mi SSE 17.3 mph 26.5 mph N/A   Scattered Clouds
5:14 PM 52.7 °F - 12.0 °F 20% 30.11 in 10.0 mi SSE 20.7 mph - N/A   Overcast
5:34 PM 52.7 °F - 12.2 °F 20% 30.11 in 10.0 mi SSE 19.6 mph 26.5 mph N/A   Mostly Cloudy
6:14 PM 51.4 °F - 11.8 °F 21% 30.08 in 10.0 mi SSE 17.3 mph - N/A   Mostly Cloudy
6:35 PM 52.0 °F - 11.7 °F 20% 30.07 in 10.0 mi SSE 20.7 mph 26.5 mph N/A   Overcast
6:54 PM 51.8 °F - 12.2 °F 21% 30.07 in 10.0 mi SSE 18.4 mph - N/A   Overcast
7:14 PM 51.8 °F - 12.7 °F 21% 30.05 in 10.0 mi SE 13.8 mph - N/A   Overcast
7:55 PM 51.4 °F - 12.9 °F 22% 30.04 in 10.0 mi SE 17.3 mph - N/A   Overcast
8:14 PM 51.4 °F - 13.6 °F 22% 30.03 in 10.0 mi SSE 20.7 mph - N/A   Overcast
8:34 PM 51.4 °F - 14.5 °F 23% 30.01 in 10.0 mi SSE 18.4 mph 24.2 mph N/A   Overcast
9:14 PM 51.4 °F - 15.8 °F 24% 30.00 in 10.0 mi SSE 18.4 mph 26.5 mph N/A   Overcast
9:34 PM 51.1 °F - 16.5 °F 25% 29.99 in 10.0 mi SSE 21.9 mph - N/A   Overcast
9:54 PM 51.3 °F - 16.7 °F 25% 29.98 in 10.0 mi SSE 20.7 mph - N/A   Overcast
10:15 PM 51.1 °F - 17.2 °F 26% 29.97 in 10.0 mi SSE 19.6 mph 27.6 mph N/A   Overcast
10:54 PM 51.1 °F - 18.9 °F 28% 29.97 in 10.0 mi South 16.1 mph - N/A   Overcast
11:14 PM 51.4 °F - 37.8 °F 60% 29.97 in 10.0 mi South 24.2 mph 32.2 mph N/A   Overcast
11:34 PM 50.4 °F - 39.0 °F 65% 29.96 in 10.0 mi SSW 20.7 mph 28.8 mph N/A   Overcast
11:54 PM 50.5 °F - 38.3 °F 63% 29.95 in 10.0 mi South 23.0 mph 31.1 mph N/A   Overcast